Location: Hurstbourne Priors
(51.2000°N, 1.3667°W)
Time: 22:27:37
(UTC+00:00)

Altair - Pass Details

Date: 15 April 2021
Orbit: 1501 x 1683 km, 47.2° (Epoch: 13 May)

Event Time Altitude Azimuth Distance (km) Brightness Sun altitude
Rises 05:01:51 0° 180° (S) 4,861 9.9 -2.1°
Reaches altitude 10° 05:06:41 10° 160° (SSE) 3,845 9.6 -1.3°
Maximum altitude 05:11:53 16° 127° (SE) 3,359 9.8 -0.6°
Drops below altitude 10° 05:17:00 10° 94° (E) 3,775 11.1 0.2°
Sets 05:21:37 0° 75° (ENE) 4,728 15.0 0.9°
